Content
SEND FEEDBACK

Daily
Averages
Monthly
Summary
Greece

ATHENS, GREECE


Home > Europe > Greece
Elevation: 69 feet     Latitude: 37 54N     Longitude: 023 44E

WEATHER
 
SELECT A DAY
Number of Records: 83,307;   Date Range: 4/14/01 - 11/27/14
 
SHARE

PRINT THIS DATA

[ ← Previous Day ]
WEATHER ALMANAC - MAY 7, 2013
[ Next Day → ]
[ °C ]   °F
Weather ElementAverageHighLow
Temperature71.4 °F77 °F (10:50 am)62.6 °F (11:20 pm)
Dewpoint51.3 °F53.6 °F (12:50 am)48.2 °F (3:20 am)
Humidity49.7 %72 % (11:20 pm)36 % (10:50 am)
Barometer29.96 in30.01 in (12:50 am)29.89 in (7:20 pm)
Wind Speed12.8 mph23 mph (5:20 pm)
Weather ElementAverage
Visibility6.2 mi
Wind DirectionNNE (34.3 °)

Weather ElementTotal
Precipitation---
Cooling Degree Days4.8 (Base 65)
Growing Degree Days19.8 (Base 50)
Averaged from 47 records on May 7, 2013
WEATHER CONDITIONS BREAKOUT
WIND DIRECTION BREAKOUT
WEATHER BY HOUR - MAY 7, 2013
[ °C ]   °F
Local TimeTemperatureDewpointHumidityBarometerVisibilityWind DirectionWind SpeedGust SpeedPrecipitationEventsConditions
12:50 AM71.6 °F53.6 °F53 %30.01 inNE (40°)13.8 mphClear
1:20 AM71.6 °F53.6 °F53 %30.01 inNE (40°)17.3 mphClear
1:50 AM69.8 °F53.6 °F56 %30.01 inNE (40°)13.8 mphClear
2:20 AM71.6 °F51.8 °F50 %30.01 inNE (40°)10.4 mphClear
2:50 AM71.6 °F50.0 °F46 %30.01 inNNE (30°)10.4 mphClear
3:20 AM71.6 °F48.2 °F43 %29.98 inNNE (20°)12.7 mphClear
3:50 AM71.6 °F48.2 °F43 %29.98 inNNE (20°)13.8 mphClear
4:20 AM71.6 °F48.2 °F43 %29.98 inNNE (20°)10.4 mphClear
4:50 AM69.8 °F48.2 °F46 %29.98 inNE (40°)11.5 mphClear
5:20 AM69.8 °F48.2 °F46 %29.98 inENE (60°)8.1 mphClear
5:50 AM71.6 °F48.2 °F43 %29.95 inEast (90°)4.6 mphClear
6:20 AM69.8 °F50.0 °F49 %29.98 inEast (90°)5.8 mphClear
6:50 AM68.0 °F51.8 °F56 %29.98 inNE (50°)9.2 mphClear
7:20 AM68.0 °F51.8 °F56 %29.98 inNE (40°)11.5 mphClear
7:50 AM68.0 °F51.8 °F56 %29.98 inNE (50°)9.2 mphClear
8:20 AM69.8 °F53.6 °F56 %29.98 inNE (50°)11.5 mphClear
8:50 AM71.6 °F53.6 °F53 %29.98 inNE (50°)12.7 mphClear
9:20 AM73.4 °F53.6 °F50 %29.98 inNE (40°)13.8 mphClear
9:50 AM75.2 °F50.0 °F41 %29.98 inNNE (20°)13.8 mphClear
10:20 AM75.2 °F50.0 °F41 %29.98 inNNE (30°)18.4 mphClear
10:50 AM77.0 °F48.2 °F36 %29.98 inNNE (20°)17.3 mphClear
11:20 AM77.0 °F48.2 °F36 %29.98 inNNE (30°)18.4 mphClear
11:50 AM77.0 °F51.8 °F41 %29.98 inNNE (30°)17.3 mphClear
12:20 PM77.0 °F51.8 °F41 %29.98 inNNE (30°)16.1 mphClear
12:50 PM77.0 °F51.8 °F41 %29.98 inNE (50°)18.4 mphClear
1:20 PM75.2 °F51.8 °F44 %29.98 inNE (50°)18.4 mphClear
1:50 PM77.0 °F50.0 °F39 %29.98 inNE (50°)20.7 mphClear
2:20 PM75.2 °F50.0 °F41 %29.98 inNE (40°)19.6 mphClear
2:50 PM75.2 °F48.2 °F38 %29.98 inNE (40°)21.9 mphClear
3:20 PM75.2 °F51.8 °F44 %29.95 inENE (60°)17.3 mphClear
3:50 PM75.2 °F51.8 °F44 %29.95 inNE (50°)18.4 mphClear
4:20 PM75.2 °F51.8 °F44 %29.95 inNE (40°)21.9 mphClear
4:50 PM75.2 °F50.0 °F41 %29.95 inNE (50°)21.9 mphClear
5:20 PM73.4 °F51.8 °F47 %29.92 in6.2 miNE (40°)23.0 mphMostly Cloudy
5:50 PM71.6 °F53.6 °F53 %29.92 in6.2 miNE (40°)21.9 mphMostly Cloudy
6:20 PM71.6 °F51.8 °F50 %29.92 in6.2 miNNE (30°)16.1 mphMostly Cloudy
6:50 PM69.8 °F51.8 °F53 %29.92 in6.2 miNE (40°)18.4 mphMostly Cloudy
7:20 PM69.8 °F53.6 °F56 %29.89 in6.2 miNNE (30°)13.8 mphMostly Cloudy
7:50 PM68.0 °F53.6 °F60 %29.92 in6.2 miNNE (30°)10.4 mphMostly Cloudy
8:20 PM68.0 °F53.6 °F60 %29.92 in6.2 miVariable3.5 mphMostly Cloudy
8:50 PM68.0 °F51.8 °F56 %29.92 in6.2 miVariable3.5 mphMostly Cloudy
9:20 PM68.0 °F51.8 °F56 %29.92 in6.2 miVariable1.2 mphMostly Cloudy
9:50 PM66.2 °F51.8 °F60 %29.92 in6.2 miVariable1.2 mphMostly Cloudy
10:20 PM64.4 °F51.8 °F64 %29.95 in6.2 miVariable2.3 mphScattered Clouds
10:50 PM64.4 °F53.6 °F68 %29.95 in6.2 miVariable2.3 mphScattered Clouds
11:20 PM62.6 °F53.6 °F72 %29.92 in6.2 miVariable3.5 mphScattered Clouds
11:50 PM62.6 °F53.6 °F72 %29.92 in6.2 miVariable1.2 mphScattered Clouds
Hourly data recorded from LGAV, located miles away from Athens, Greece







STORIES FROM OUR PARTNERS